475 
ASUS46 KSEW 251510
RWRWA 

WASHINGTON REGIONAL WEATHER ROUNDUP
NATIONAL WEATHER SERVICE SEATTLE WA
800 AM PDT SAT JUN 25 2016

NOTE:"FAIR" INDICATES FEW OR NO CLOUDS BELOW 12,000 FEET WITH NO 
SIGNIFICANT WEATHER AND/OR OBSTRUCTIONS TO VISIBILITY.

WAZ505-507>509-251600-
SEATTLE, TACOMA, EVERETT, AND VICINITY
  
CITY           SKY/WX    TMP DP  RH WIND       PRES   REMARKS
EVERETT        CLOUDY    56  48  74 N3        30.30S                  
BOEING FIELD   CLOUDY    60  51  72 VRB3      30.30R                  
RENTON         CLOUDY    60  50  69 VRB3      30.29R                  
SEATAC AIRPORT CLOUDY    58  52  80 NE7       30.30R                  
JBLM-MCCHORD   PTSUNNY   58  53  85 W7        30.29R                  
PUYALLUP       FAIR      59  52  77 CALM      30.29R                  
BREMERTON      CLOUDY    55  52  88 N3        30.32R                  
JBLM-FT LEWIS  MOSUNNY   57  53  84 VRB3      30.28S                  
TACOMA NARROWS CLOUDY    56  50  80 S3        30.30R                  
$$
 
WAZ001-503-506-510-514-515-251600-
NORTH INTERIOR
  
CITY           SKY/WX    TMP DP  RH WIND       PRES   REMARKS
BELLINGHAM     CLOUDY    58  51  78 S6        30.28S                  
FRIDAY HARBOR  CLOUDY    57  51  80 CALM      30.29R                  
EASTSOUND      CLOUDY    57  50  77 S7        30.26S                  
PORT ANGELES   CLOUDY    56  49  77 W5        30.29S                  
EDIZ HOOK      FAIR      54  51  87 SW3       30.29S                  
PORT TOWNSEND  CLOUDY    55  54  94 CALM      30.31R FOG              
NAS WHIDBEY    CLOUDY    59  49  69 SW9       30.33S                  
ARLINGTON      CLOUDY    55  46  71 N3        30.31F                  
BURLINGTON     CLOUDY    57  54  88 S5        30.30S                  
$$
 
WAZ020-022-039-040-504-511-512-251600-
SOUTHWEST INTERIOR
  
CITY           SKY/WX    TMP DP  RH WIND       PRES   REMARKS
SHELTON        CLOUDY    56  51  84 NW3       30.27S                  
OLYMPIA        PTSUNNY   56  51  84 CALM      30.29S                  
CHEHALIS       FAIR      61  54  77 CALM      30.29S                  
KELSO          SUNNY     55  50  82 CALM      30.31S                  
VANCOUVER      SUNNY     57  51  80 VRB5      30.27S                  
SCAPPOOSE, OR  SUNNY     57  52  83 CALM      30.26S                  
PORTLAND, OR   MOSUNNY   56  50  80 NW3       30.27S                  
$$
 
WAZ021-516-517-251600-
WASHINGTON COAST
  
CITY           SKY/WX    TMP DP  RH WIND       PRES   REMARKS
FORKS          CLOUDY    55  53  93 CALM      30.29S                  
HOQUIAM        PTSUNNY   57  53  86 CALM      30.30R                  
ASTORIA, OR    CLOUDY    59  56  89 CALM      30.28S                  
$$
 
WAZ019-023-024-040-518-519-251600-
CASCADE MOUNTAINS AND COLUMBIA GORGE
  
CITY           SKY/WX    TMP DP  RH WIND       PRES   REMARKS
STAMPEDE PASS  FOG       43  41  93 VRB3      30.27R VSB<1/4          
TROUTDALE, OR  CLOUDY    54  52  93 CALM      30.27S FOG              
THE DALLES, OR SUNNY     60  49  66 NW9       30.23S                  
$$

WAZ026-027-041>044-520-521-251600-
EAST SLOPES
  
CITY           SKY/WX    TMP DP  RH WIND       PRES   REMARKS
OMAK           SUNNY     55  47  74 CALM      30.21S                  
WENATCHEE      MOSUNNY   61  43  51 NW8       30.20S                  
ELLENSBURG     PTSUNNY   58  46  64 NW12      30.22S                  
YAKIMA         CLOUDY    60  43  53 CALM      30.22S                  
$$

WAZ028-034-035-251600-
COLUMBIA BASIN
  
CITY           SKY/WX    TMP DP  RH WIND       PRES   REMARKS
EPHRATA        SUNNY     59  44  57 CALM      30.20S                  
MOSES LAKE     SUNNY     60  47  61 S9        30.21S                  
PASCO          MOSUNNY   62  48  60 SE5       30.23S                  
HERMISTON, OR    N/A     62  46  55 SW7       30.24S                  
$$

WAZ036>038-251600-
NORTHEAST WASHINGTON
  
CITY           SKY/WX    TMP DP  RH WIND       PRES   REMARKS
SPOKANE GEIGER MOSUNNY   53  45  74 SW9       30.24R                  
SPOKANE FELTS  SUNNY     55  45  68 SW6       30.25R                  
FAIRCHILD AFB  SUNNY     46  41  81 SW12      30.18S                  
COEURDALENE,ID SUNNY     52  45  76 S10       30.23R                  
DEER PARK      PTSUNNY   50  42  74 S8        30.24R                  
$$

WAZ029>033-251600-
SOUTHEAST WASHINGTON
  
CITY           SKY/WX    TMP DP  RH WIND       PRES   REMARKS
PULLMAN        SUNNY     54  45  71 CALM      30.28R                  
LEWISTON, ID   SUNNY     62  43  49 CALM      30.26R                  
WALLA WALLA    SUNNY     61  44  53 SW12      30.25S                  
PENDLETON, OR  SUNNY     57  42  57 SE7       30.25S                  
$$